TSC932 CYYZ-EGPF

Flight info

Callsign TSC932
Flight time 6h 12m
Altitude 35000
Route VERDO7 LORKA Q907 MIILS N691A NEEKO/M083F350 DCT 54N050W 56N040W 58N030W 58N020W DCT GOMUP/N0476F350 DCT GINGA DCT BRUCE
Aircraft L101/H-SDFGHIRWXY/S

Departure

Time 2026-05-05 09:26
Airport Toronto Pearson International Airport (CYYZ)

Arrival

Time 2026-05-05 15:38
Airport Glasgow Airport (EGPF)
Time Latitude Longitude Altitude Speed Heading
2026-05-05 08:46 43.68387 -79.61925 572 ft 0 kts 291°
2026-05-05 09:06 43.68381 -79.61903 575 ft 4 kts 291°
2026-05-05 09:06 43.68372 -79.61868 575 ft 4 kts 290°
2026-05-05 09:07 43.68365 -79.61839 575 ft 4 kts 258°
2026-05-05 09:07 43.68378 -79.61814 575 ft 4 kts 206°
2026-05-05 09:07 43.68394 -79.61805 574 ft 1 kts 197°
2026-05-05 09:07 43.68396 -79.61804 575 ft 0 kts 197°
2026-05-05 09:14 43.68393 -79.61805 577 ft 1 kts 197°
2026-05-05 09:15 43.68380 -79.61811 572 ft 4 kts 198°
2026-05-05 09:15 43.68342 -79.61827 571 ft 7 kts 195°
2026-05-05 09:15 43.68286 -79.61834 571 ft 9 kts 178°
2026-05-05 09:15 43.68221 -79.61825 572 ft 10 kts 171°
2026-05-05 09:16 43.68153 -79.61834 568 ft 10 kts 210°
2026-05-05 09:16 43.68101 -79.61906 573 ft 11 kts 227°
2026-05-05 09:16 43.68041 -79.61977 574 ft 12 kts 202°
2026-05-05 09:16 43.67970 -79.62025 568 ft 12 kts 223°
2026-05-05 09:17 43.67917 -79.62110 575 ft 12 kts 230°
2026-05-05 09:17 43.67859 -79.62144 573 ft 8 kts 162°
2026-05-05 09:17 43.67816 -79.62102 576 ft 8 kts 142°
2026-05-05 09:17 43.67774 -79.62051 572 ft 8 kts 136°
2026-05-05 09:18 43.67732 -79.61996 574 ft 9 kts 136°
2026-05-05 09:18 43.67684 -79.61933 574 ft 11 kts 136°
2026-05-05 09:18 43.67627 -79.61857 578 ft 12 kts 136°
2026-05-05 09:18 43.67562 -79.61773 573 ft 13 kts 136°
2026-05-05 09:19 43.67488 -79.61677 574 ft 16 kts 137°
2026-05-05 09:19 43.67404 -79.61569 573 ft 17 kts 137°
2026-05-05 09:19 43.67311 -79.61451 573 ft 19 kts 137°
2026-05-05 09:19 43.67220 -79.61334 576 ft 13 kts 135°
2026-05-05 09:20 43.67156 -79.61246 573 ft 10 kts 135°
2026-05-05 09:20 43.67131 -79.61194 574 ft 2 kts 103°
2026-05-05 09:20 43.67137 -79.61159 572 ft 5 kts 58°
2026-05-05 09:20 43.67181 -79.61099 572 ft 14 kts 40°
2026-05-05 09:21 43.67261 -79.61010 567 ft 15 kts 52°
2026-05-05 09:21 43.67329 -79.60894 565 ft 16 kts 46°
2026-05-05 09:21 43.67412 -79.60770 570 ft 18 kts 47°
2026-05-05 09:21 43.67500 -79.60641 571 ft 19 kts 47°
2026-05-05 09:22 43.67593 -79.60504 574 ft 20 kts 47°
2026-05-05 09:22 43.67692 -79.60360 567 ft 21 kts 45°
2026-05-05 09:22 43.67802 -79.60205 573 ft 24 kts 45°
2026-05-05 09:22 43.67910 -79.60048 567 ft 16 kts 47°
2026-05-05 09:23 43.67962 -79.59971 570 ft 6 kts 50°
2026-05-05 09:23 43.67976 -79.59913 563 ft 7 kts 97°
2026-05-05 09:23 43.67961 -79.59877 573 ft 0 kts 132°
2026-05-05 09:24 43.67960 -79.59876 573 ft 1 kts 132°
2026-05-05 09:24 43.67949 -79.59858 570 ft 4 kts 132°
2026-05-05 09:25 43.67922 -79.59818 571 ft 6 kts 132°
2026-05-05 09:25 43.67885 -79.59791 573 ft 6 kts 176°
2026-05-05 09:25 43.67839 -79.59824 567 ft 9 kts 228°
2026-05-05 09:25 43.67776 -79.59919 572 ft 33 kts 226°
2026-05-05 09:26 43.67430 -79.60419 575 ft 111 kts 226°
2026-05-05 09:26 43.66739 -79.61409 721 ft 167 kts 225°
2026-05-05 09:26 43.65883 -79.62688 1309 ft 195 kts 227°
2026-05-05 09:26 43.64946 -79.64061 2053 ft 198 kts 227°
2026-05-05 09:27 43.63966 -79.65360 2863 ft 196 kts 227°
2026-05-05 09:27 43.62905 -79.66656 3693 ft 211 kts 225°
2026-05-05 09:27 43.61554 -79.67664 4487 ft 237 kts 201°
2026-05-05 09:27 43.59833 -79.67744 5340 ft 257 kts 180°
2026-05-05 09:28 43.58050 -79.67275 6353 ft 264 kts 174°
2026-05-05 09:28 43.56267 -79.66614 7374 ft 266 kts 171°
2026-05-05 09:28 43.54515 -79.65896 8414 ft 265 kts 170°
2026-05-05 09:28 43.52757 -79.65149 9487 ft 264 kts 170°
2026-05-05 09:29 43.51013 -79.64401 10469 ft 262 kts 170°
2026-05-05 09:29 43.49325 -79.63394 11315 ft 277 kts 154°
2026-05-05 09:29 43.47904 -79.61339 11457 ft 316 kts 126°
2026-05-05 09:29 43.47177 -79.58375 11632 ft 346 kts 99°
2026-05-05 09:30 43.47363 -79.54967 11858 ft 372 kts 75°
2026-05-05 09:30 43.48441 -79.51622 12042 ft 393 kts 59°
2026-05-05 09:30 43.49914 -79.48343 12188 ft 413 kts 58°
2026-05-05 09:30 43.51406 -79.44856 12316 ft 430 kts 61°
2026-05-05 09:31 43.52819 -79.41180 12873 ft 433 kts 63°
2026-05-05 09:31 43.54240 -79.37496 13459 ft 438 kts 59°
2026-05-05 09:31 43.55832 -79.33890 13992 ft 442 kts 56°
2026-05-05 09:31 43.57473 -79.30337 14524 ft 446 kts 57°
2026-05-05 09:32 43.59056 -79.26645 15082 ft 450 kts 60°
2026-05-05 09:32 43.60550 -79.22760 15648 ft 454 kts 63°
2026-05-05 09:32 43.61953 -79.18885 16217 ft 458 kts 63°
2026-05-05 09:32 43.63376 -79.14922 16777 ft 462 kts 63°
2026-05-05 09:33 43.64825 -79.10940 17373 ft 466 kts 63°
2026-05-05 09:33 43.66299 -79.06921 17933 ft 471 kts 63°
2026-05-05 09:33 43.67782 -79.02862 18445 ft 475 kts 63°
2026-05-05 09:33 43.69265 -78.98768 18991 ft 477 kts 63°
2026-05-05 09:34 43.70751 -78.94639 19535 ft 482 kts 63°
2026-05-05 09:34 43.72252 -78.90463 20127 ft 485 kts 63°
2026-05-05 09:34 43.73757 -78.86272 20717 ft 488 kts 63°
2026-05-05 09:34 43.75271 -78.82052 21326 ft 492 kts 63°
2026-05-05 09:35 43.76796 -78.77791 21906 ft 495 kts 64°
2026-05-05 09:35 43.79784 -78.69193 23081 ft 502 kts 65°
2026-05-05 09:35 43.81275 -78.64801 23647 ft 503 kts 65°
2026-05-05 09:36 43.82778 -78.60399 24136 ft 507 kts 65°
2026-05-05 09:36 43.84304 -78.55974 24592 ft 510 kts 64°
2026-05-05 09:36 43.85852 -78.51502 24944 ft 518 kts 64°
2026-05-05 09:36 43.87427 -78.46949 25073 ft 530 kts 64°
2026-05-05 09:37 43.88486 -78.43879 25148 ft 537 kts 64°
2026-05-05 09:37 43.90646 -78.37602 25336 ft 550 kts 64°
2026-05-05 09:37 43.91755 -78.34375 25703 ft 549 kts 64°
2026-05-05 09:37 43.93926 -78.28050 26572 ft 547 kts 64°
2026-05-05 09:38 43.95557 -78.23290 27207 ft 545 kts 65°
2026-05-05 09:38 43.96659 -78.20070 27642 ft 545 kts 65°
2026-05-05 09:38 43.98258 -78.15389 28287 ft 544 kts 65°
2026-05-05 09:38 43.99874 -78.10649 28960 ft 543 kts 65°
2026-05-05 09:39 44.01492 -78.05895 29484 ft 544 kts 65°
2026-05-05 09:39 44.03109 -78.01137 30078 ft 543 kts 65°
2026-05-05 09:39 44.04719 -77.96391 30642 ft 542 kts 65°
2026-05-05 09:39 44.06321 -77.91657 31346 ft 538 kts 64°
2026-05-05 09:40 44.07911 -77.86954 31933 ft 537 kts 64°
2026-05-05 09:40 44.09496 -77.82258 32549 ft 535 kts 64°
2026-05-05 09:40 44.11074 -77.77575 33139 ft 534 kts 64°
2026-05-05 09:40 44.12650 -77.72886 33691 ft 533 kts 64°
2026-05-05 09:41 44.14218 -77.68214 34176 ft 532 kts 64°
2026-05-05 09:41 44.15792 -77.63519 34437 ft 538 kts 64°
2026-05-05 09:41 44.17355 -77.58847 34547 ft 539 kts 64°
2026-05-05 09:41 44.18937 -77.54112 34594 ft 537 kts 64°
2026-05-05 09:42 44.22575 -77.45075 34620 ft 533 kts 56°
2026-05-05 09:42 44.26497 -77.36289 34620 ft 533 kts 57°
2026-05-05 09:43 44.30364 -77.27448 34645 ft 533 kts 56°
2026-05-05 09:43 44.34270 -77.18697 34631 ft 534 kts 56°
2026-05-05 09:44 44.38206 -77.09900 34637 ft 533 kts 56°
2026-05-05 09:44 44.42136 -77.01091 34643 ft 532 kts 56°
2026-05-05 09:45 44.46053 -76.92291 34639 ft 533 kts 56°
2026-05-05 09:45 44.49943 -76.83527 34643 ft 533 kts 56°
2026-05-05 09:46 44.53854 -76.74693 34640 ft 533 kts 56°
2026-05-05 09:46 44.57758 -76.65841 34633 ft 533 kts 56°
2026-05-05 09:47 44.61646 -76.57002 34646 ft 532 kts 56°
2026-05-05 09:47 44.65512 -76.48189 34651 ft 533 kts 56°
2026-05-05 09:48 44.69395 -76.39306 34646 ft 533 kts 56°
2026-05-05 09:48 44.73277 -76.30398 34637 ft 533 kts 56°
2026-05-05 09:49 44.76901 -76.21260 34610 ft 536 kts 67°
2026-05-05 09:49 44.79432 -76.11441 34637 ft 538 kts 70°
2026-05-05 09:50 44.82061 -76.01581 34640 ft 538 kts 68°
2026-05-05 09:50 44.84698 -75.91717 34641 ft 538 kts 69°
2026-05-05 09:51 44.87269 -75.81809 34634 ft 538 kts 69°
2026-05-05 09:51 44.89832 -75.71888 34633 ft 538 kts 69°
2026-05-05 09:52 44.92390 -75.61945 34637 ft 539 kts 69°
2026-05-05 09:52 44.94936 -75.51998 34632 ft 539 kts 69°
2026-05-05 09:53 44.97472 -75.42043 34638 ft 539 kts 70°
2026-05-05 09:53 45.00002 -75.32072 34641 ft 539 kts 70°
2026-05-05 09:54 45.02504 -75.22165 34651 ft 539 kts 70°
2026-05-05 09:54 45.05019 -75.12168 34648 ft 539 kts 70°
2026-05-05 09:55 45.07526 -75.02158 34650 ft 539 kts 70°
2026-05-05 09:55 45.10021 -74.92151 34635 ft 539 kts 70°
2026-05-05 09:56 45.12508 -74.82129 34649 ft 539 kts 70°
2026-05-05 09:56 45.15049 -74.72226 34636 ft 537 kts 68°
2026-05-05 09:57 45.17634 -74.62274 34631 ft 538 kts 69°
2026-05-05 09:57 45.20237 -74.52328 34624 ft 538 kts 68°
2026-05-05 09:58 45.22874 -74.42408 34624 ft 538 kts 68°
2026-05-05 09:58 45.25510 -74.32477 34621 ft 537 kts 68°
2026-05-05 09:59 45.28131 -74.22572 34637 ft 536 kts 68°
2026-05-05 09:59 45.30732 -74.12710 34633 ft 536 kts 68°
2026-05-05 10:00 45.33344 -74.02768 34637 ft 536 kts 68°
2026-05-05 10:00 45.35943 -73.92830 34643 ft 536 kts 68°
2026-05-05 10:01 45.38533 -73.82883 34647 ft 536 kts 68°
2026-05-05 10:01 45.41117 -73.72921 34658 ft 536 kts 68°
2026-05-05 10:02 45.43691 -73.62954 34649 ft 536 kts 68°
2026-05-05 10:02 45.46244 -73.53028 34653 ft 537 kts 69°
2026-05-05 10:03 45.48801 -73.43041 34648 ft 536 kts 68°
2026-05-05 10:03 45.51345 -73.33061 34652 ft 534 kts 68°
2026-05-05 10:04 45.53874 -73.23101 34659 ft 533 kts 68°
2026-05-05 10:04 45.56392 -73.13140 34661 ft 533 kts 69°
2026-05-05 10:05 45.58886 -73.03231 34686 ft 533 kts 69°
2026-05-05 10:05 45.61384 -72.93260 34680 ft 533 kts 68°
2026-05-05 10:06 45.63873 -72.83282 34689 ft 533 kts 68°
2026-05-05 10:06 45.66351 -72.73308 34698 ft 533 kts 68°
2026-05-05 10:07 45.68828 -72.63297 34701 ft 534 kts 68°
2026-05-05 10:07 45.71299 -72.53265 34693 ft 535 kts 68°
2026-05-05 10:08 45.73763 -72.43212 34695 ft 534 kts 68°
2026-05-05 10:08 45.76212 -72.33177 34697 ft 533 kts 68°
2026-05-05 10:09 45.78649 -72.23147 34729 ft 533 kts 68°
2026-05-05 10:09 45.81082 -72.13088 34711 ft 535 kts 68°
2026-05-05 10:10 45.83500 -72.03053 34722 ft 536 kts 69°
2026-05-05 10:10 45.85926 -71.92932 34715 ft 535 kts 69°
2026-05-05 10:11 45.88336 -71.82830 34733 ft 535 kts 69°
2026-05-05 10:11 45.90735 -71.72729 34745 ft 535 kts 69°
2026-05-05 10:12 45.93112 -71.62676 34743 ft 535 kts 69°
2026-05-05 10:12 45.95501 -71.52531 34743 ft 536 kts 69°
2026-05-05 10:13 45.97877 -71.42389 34739 ft 534 kts 69°
2026-05-05 10:13 46.00236 -71.32270 34739 ft 533 kts 69°
2026-05-05 10:14 46.02584 -71.22149 34745 ft 533 kts 69°
2026-05-05 10:14 46.04925 -71.12017 34747 ft 534 kts 69°
2026-05-05 10:15 46.07265 -71.01844 34748 ft 534 kts 69°
2026-05-05 10:15 46.09590 -70.91686 34743 ft 533 kts 69°
2026-05-05 10:16 46.11901 -70.81538 34746 ft 532 kts 69°
2026-05-05 10:16 46.14184 -70.71466 34756 ft 532 kts 69°
2026-05-05 10:17 46.16476 -70.61309 34756 ft 532 kts 69°
2026-05-05 10:17 46.18758 -70.51148 34746 ft 532 kts 69°
2026-05-05 10:18 46.21024 -70.41007 34750 ft 530 kts 69°
2026-05-05 10:18 46.23255 -70.30976 34754 ft 530 kts 69°
2026-05-05 10:19 46.25180 -70.22051 34751 ft 530 kts 71°
2026-05-05 10:19 46.27056 -70.11719 34766 ft 531 kts 73°
2026-05-05 10:20 46.29039 -70.01433 34750 ft 531 kts 70°
2026-05-05 10:20 46.31173 -69.91279 34759 ft 531 kts 70°
2026-05-05 10:21 46.33326 -69.81038 34756 ft 531 kts 70°
2026-05-05 10:21 46.35474 -69.70803 34765 ft 531 kts 70°
2026-05-05 10:22 46.37619 -69.60573 34768 ft 531 kts 70°
2026-05-05 10:22 46.39744 -69.50390 34797 ft 531 kts 70°
2026-05-05 10:23 46.41868 -69.40157 34773 ft 528 kts 70°
2026-05-05 10:23 46.43975 -69.29965 34776 ft 527 kts 70°
2026-05-05 10:24 46.46074 -69.19755 34773 ft 527 kts 70°
2026-05-05 10:24 46.48151 -69.09602 34774 ft 527 kts 70°
2026-05-05 10:25 46.50232 -68.99380 34783 ft 527 kts 70°
2026-05-05 10:25 46.52304 -68.89144 34780 ft 528 kts 70°
2026-05-05 10:26 46.54354 -68.78971 34777 ft 528 kts 70°
2026-05-05 10:26 46.56405 -68.68739 34784 ft 528 kts 70°
2026-05-05 10:27 46.58449 -68.58483 34782 ft 528 kts 71°
2026-05-05 10:27 46.60483 -68.48230 34811 ft 528 kts 70°
2026-05-05 10:28 46.62165 -68.39704 34800 ft 527 kts 70°
2026-05-05 10:28 46.64178 -68.29456 34796 ft 526 kts 71°
2026-05-05 10:29 46.66179 -68.19216 34790 ft 526 kts 71°
2026-05-05 10:29 46.68173 -68.08956 34788 ft 526 kts 71°
2026-05-05 10:30 46.70156 -67.98698 34789 ft 526 kts 71°
2026-05-05 10:30 46.72127 -67.88442 34784 ft 525 kts 70°
2026-05-05 10:31 46.74083 -67.78192 34788 ft 524 kts 71°
2026-05-05 10:31 46.75894 -67.67933 34784 ft 525 kts 72°
2026-05-05 10:32 46.77685 -67.57616 34794 ft 524 kts 71°
2026-05-05 10:32 46.79589 -67.47342 34798 ft 525 kts 71°
2026-05-05 10:33 46.81504 -67.37062 34802 ft 524 kts 71°
2026-05-05 10:33 46.83408 -67.26797 34802 ft 523 kts 71°
2026-05-05 10:34 46.85307 -67.16539 34812 ft 524 kts 71°
2026-05-05 10:34 46.87193 -67.06262 34806 ft 523 kts 70°
2026-05-05 10:35 46.88471 -67.01334 34768 ft 514 kts 55°
2026-05-05 10:35 46.90478 -66.97114 34792 ft 498 kts 43°
2026-05-05 10:35 46.95087 -66.89504 34855 ft 504 kts 44°
2026-05-05 10:36 46.99555 -66.81579 34819 ft 504 kts 44°
2026-05-05 10:36 47.04000 -66.73672 34810 ft 502 kts 44°
2026-05-05 10:37 47.08447 -66.65763 34818 ft 502 kts 44°
2026-05-05 10:37 47.12891 -66.57831 34826 ft 503 kts 44°
2026-05-05 10:38 47.17331 -66.49885 34815 ft 503 kts 44°
2026-05-05 10:38 47.21741 -66.41967 34809 ft 504 kts 44°
2026-05-05 10:39 47.26176 -66.33982 34828 ft 503 kts 44°
2026-05-05 10:39 47.30611 -66.25973 34817 ft 504 kts 44°
2026-05-05 10:40 47.35047 -66.17937 34813 ft 505 kts 45°
2026-05-05 10:40 47.39471 -66.09898 34806 ft 505 kts 45°
2026-05-05 10:41 47.43893 -66.01840 34803 ft 505 kts 44°
2026-05-05 10:41 47.48289 -65.93805 34815 ft 506 kts 44°
2026-05-05 10:42 47.54925 -65.81632 34815 ft 506 kts 44°
2026-05-05 10:43 47.59351 -65.73484 34826 ft 507 kts 44°
2026-05-05 10:43 47.63768 -65.65327 34819 ft 508 kts 44°
2026-05-05 10:44 47.68163 -65.57185 34802 ft 508 kts 45°
2026-05-05 10:44 47.72574 -65.48988 34802 ft 508 kts 45°
2026-05-05 10:45 47.76982 -65.40773 34808 ft 508 kts 45°
2026-05-05 10:45 47.81394 -65.32523 34801 ft 509 kts 45°
2026-05-05 10:46 47.85796 -65.24267 34806 ft 509 kts 45°
2026-05-05 10:46 47.90189 -65.16000 34846 ft 509 kts 45°
2026-05-05 10:47 47.94543 -65.07781 34833 ft 507 kts 45°
2026-05-05 10:47 47.98909 -64.99511 34812 ft 506 kts 45°
2026-05-05 10:48 48.03259 -64.91257 34806 ft 505 kts 45°
2026-05-05 10:48 48.07607 -64.82980 34814 ft 506 kts 45°
2026-05-05 10:49 48.11949 -64.74688 34802 ft 506 kts 45°
2026-05-05 10:49 48.16281 -64.66385 34791 ft 506 kts 45°
2026-05-05 10:50 48.20584 -64.58112 34777 ft 506 kts 45°
2026-05-05 10:50 48.24915 -64.49759 34786 ft 506 kts 45°
2026-05-05 10:51 48.29235 -64.41402 34772 ft 506 kts 45°
2026-05-05 10:51 48.33550 -64.33028 34774 ft 506 kts 45°
2026-05-05 10:52 48.37834 -64.24689 34771 ft 506 kts 45°
2026-05-05 10:52 48.42139 -64.16280 34761 ft 507 kts 45°
2026-05-05 10:53 48.46440 -64.07858 34784 ft 506 kts 46°
2026-05-05 10:53 48.50694 -63.99493 34784 ft 505 kts 46°
2026-05-05 10:54 48.54963 -63.91078 34804 ft 505 kts 46°
2026-05-05 10:54 48.59227 -63.82644 34763 ft 505 kts 46°
2026-05-05 10:55 48.63484 -63.74194 34773 ft 505 kts 46°
2026-05-05 10:55 48.67736 -63.65727 34781 ft 505 kts 47°
2026-05-05 10:56 48.71983 -63.57243 34784 ft 506 kts 47°
2026-05-05 10:56 48.76233 -63.48727 34771 ft 506 kts 47°
2026-05-05 10:57 48.80477 -63.40192 34760 ft 506 kts 47°
2026-05-05 10:57 48.84690 -63.31692 34752 ft 506 kts 47°
2026-05-05 10:58 48.88929 -63.23112 34771 ft 506 kts 48°
2026-05-05 10:58 48.93149 -63.14542 34753 ft 505 kts 48°
2026-05-05 10:59 48.97325 -63.06035 34746 ft 505 kts 48°
2026-05-05 10:59 49.01526 -62.97449 34749 ft 505 kts 48°
2026-05-05 11:00 49.05720 -62.88851 34753 ft 505 kts 49°
2026-05-05 11:00 49.09905 -62.80240 34739 ft 505 kts 49°
2026-05-05 11:01 49.14085 -62.71611 34738 ft 506 kts 49°
2026-05-05 11:01 49.18261 -62.62962 34745 ft 505 kts 49°
2026-05-05 11:02 49.22432 -62.54297 34733 ft 506 kts 49°
2026-05-05 11:02 49.26564 -62.45683 34733 ft 505 kts 49°
2026-05-05 11:03 49.30728 -62.36973 34726 ft 506 kts 49°
2026-05-05 11:03 49.34882 -62.28257 34726 ft 506 kts 49°
2026-05-05 11:04 49.39029 -62.19528 34727 ft 506 kts 50°
2026-05-05 11:04 49.43168 -62.10785 34715 ft 506 kts 50°
2026-05-05 11:05 49.47303 -62.02023 34714 ft 506 kts 50°
2026-05-05 11:05 49.51426 -61.93255 34718 ft 506 kts 50°
2026-05-05 11:06 49.55514 -61.84536 34692 ft 505 kts 51°
2026-05-05 11:06 49.59621 -61.75747 34693 ft 505 kts 51°
2026-05-05 11:07 49.63723 -61.66939 34687 ft 505 kts 51°
2026-05-05 11:07 49.67821 -61.58110 34697 ft 505 kts 51°
2026-05-05 11:08 49.71912 -61.49268 34678 ft 505 kts 51°
2026-05-05 11:08 49.75961 -61.40487 34669 ft 504 kts 51°
2026-05-05 11:09 49.80029 -61.31636 34674 ft 504 kts 51°
2026-05-05 11:09 49.84089 -61.22770 34662 ft 505 kts 51°
2026-05-05 11:10 49.88149 -61.13876 34655 ft 504 kts 51°
2026-05-05 11:10 49.92195 -61.04985 34656 ft 505 kts 51°
2026-05-05 11:11 49.96234 -60.96076 34654 ft 505 kts 51°
2026-05-05 11:11 50.00267 -60.87154 34658 ft 505 kts 52°
2026-05-05 11:12 50.04277 -60.78252 34653 ft 505 kts 52°
2026-05-05 11:12 50.08336 -60.69332 34631 ft 504 kts 50°
2026-05-05 11:13 50.12635 -60.60711 34611 ft 503 kts 48°
2026-05-05 11:13 50.17043 -60.52229 34617 ft 504 kts 48°
2026-05-05 11:14 50.21466 -60.43739 34595 ft 504 kts 48°
2026-05-05 11:14 50.25882 -60.35226 34578 ft 504 kts 48°
2026-05-05 11:15 50.30290 -60.26700 34571 ft 504 kts 48°
2026-05-05 11:15 50.33952 -60.19592 34567 ft 504 kts 48°
2026-05-05 11:16 50.38354 -60.11023 34563 ft 504 kts 48°
2026-05-05 11:16 50.42743 -60.02451 34547 ft 504 kts 49°
2026-05-05 11:17 50.47123 -59.93865 34525 ft 504 kts 49°
2026-05-05 11:17 50.51504 -59.85250 34522 ft 506 kts 49°
2026-05-05 11:18 50.55893 -59.76588 34507 ft 506 kts 49°
2026-05-05 11:18 50.60244 -59.67971 34493 ft 506 kts 49°
2026-05-05 11:19 50.64621 -59.59272 34493 ft 506 kts 49°
2026-05-05 11:19 50.68992 -59.50554 34489 ft 506 kts 49°
2026-05-05 11:20 50.73357 -59.41817 34482 ft 507 kts 49°
2026-05-05 11:20 50.77717 -59.33058 34493 ft 507 kts 49°
2026-05-05 11:21 50.82071 -59.24282 34484 ft 507 kts 49°
2026-05-05 11:21 50.86420 -59.15487 34488 ft 508 kts 50°
2026-05-05 11:22 50.90747 -59.06705 34482 ft 508 kts 50°
2026-05-05 11:22 50.95090 -58.97857 34480 ft 508 kts 50°
2026-05-05 11:23 50.99426 -58.88991 34482 ft 508 kts 50°
2026-05-05 11:23 51.03759 -58.80101 34492 ft 509 kts 50°
2026-05-05 11:24 51.08087 -58.71187 34481 ft 509 kts 50°
2026-05-05 11:24 51.12408 -58.62257 34477 ft 509 kts 50°
2026-05-05 11:25 51.16699 -58.53358 34485 ft 509 kts 51°
2026-05-05 11:25 51.21007 -58.44393 34480 ft 510 kts 51°
2026-05-05 11:26 51.25311 -58.35401 34480 ft 510 kts 51°
2026-05-05 11:26 51.29609 -58.26389 34478 ft 510 kts 51°
2026-05-05 11:27 51.33908 -58.17342 34488 ft 510 kts 51°
2026-05-05 11:27 51.38171 -58.08341 34480 ft 511 kts 51°
2026-05-05 11:28 51.42458 -57.99255 34470 ft 511 kts 52°
2026-05-05 11:28 51.46737 -57.90153 34464 ft 511 kts 52°
2026-05-05 11:29 51.51014 -57.81022 34457 ft 511 kts 52°
2026-05-05 11:29 51.55277 -57.71885 34437 ft 511 kts 52°
2026-05-05 11:30 51.59539 -57.62720 34443 ft 511 kts 52°
2026-05-05 11:30 51.63763 -57.53600 34440 ft 511 kts 52°
2026-05-05 11:31 51.68007 -57.44408 34428 ft 511 kts 52°
2026-05-05 11:31 51.72236 -57.35213 34425 ft 510 kts 52°
2026-05-05 11:32 51.76457 -57.26000 34406 ft 510 kts 52°
2026-05-05 11:32 51.80667 -57.16777 34389 ft 510 kts 53°
2026-05-05 11:33 51.84871 -57.07535 34389 ft 512 kts 53°
2026-05-05 11:33 51.89073 -56.98269 34375 ft 515 kts 53°
2026-05-05 11:34 51.93307 -56.88894 34361 ft 515 kts 53°
2026-05-05 11:34 51.97532 -56.79504 34361 ft 515 kts 53°
2026-05-05 11:35 52.01722 -56.70162 34359 ft 515 kts 53°
2026-05-05 11:35 52.05923 -56.60759 34351 ft 513 kts 53°
2026-05-05 11:36 52.10107 -56.51358 34343 ft 512 kts 53°
2026-05-05 11:36 52.14281 -56.41947 34334 ft 512 kts 53°
2026-05-05 11:37 52.18446 -56.32523 34336 ft 513 kts 54°
2026-05-05 11:37 52.22607 -56.23074 34325 ft 513 kts 54°
2026-05-05 11:38 52.26760 -56.13608 34324 ft 513 kts 54°
2026-05-05 11:38 52.30883 -56.04178 34324 ft 513 kts 54°
2026-05-05 11:39 52.35024 -55.94674 34333 ft 512 kts 54°
2026-05-05 11:39 52.39104 -55.85142 34315 ft 510 kts 58°
2026-05-05 11:40 52.42431 -55.74914 34329 ft 509 kts 63°
2026-05-05 11:40 52.45681 -55.64601 34326 ft 510 kts 62°
2026-05-05 11:41 52.48964 -55.54280 34325 ft 510 kts 64°
2026-05-05 11:41 52.52165 -55.43880 34359 ft 511 kts 64°
2026-05-05 11:42 52.55344 -55.33512 34361 ft 511 kts 64°
2026-05-05 11:42 52.58525 -55.23053 34369 ft 511 kts 64°
2026-05-05 11:43 52.61687 -55.12578 34369 ft 511 kts 64°
2026-05-05 11:43 52.64850 -55.02081 34389 ft 511 kts 65°
2026-05-05 11:44 52.67983 -54.91650 34396 ft 511 kts 65°
2026-05-05 11:44 52.71129 -54.81135 34396 ft 511 kts 65°
2026-05-05 11:45 52.74269 -54.70595 34391 ft 511 kts 65°
2026-05-05 11:45 52.77395 -54.60058 34397 ft 510 kts 65°
2026-05-05 11:46 52.80502 -54.49540 34399 ft 509 kts 66°
2026-05-05 11:46 52.83599 -54.39003 34402 ft 509 kts 66°
2026-05-05 11:47 52.86666 -54.28525 34407 ft 509 kts 66°
2026-05-05 11:47 52.89745 -54.17960 34394 ft 509 kts 66°
2026-05-05 11:48 52.94332 -54.02134 34408 ft 506 kts 66°
2026-05-05 11:48 52.97352 -53.91650 34414 ft 506 kts 66°
2026-05-05 11:49 53.00379 -53.81097 34414 ft 506 kts 66°
2026-05-05 11:49 53.03398 -53.70527 34424 ft 506 kts 67°
2026-05-05 11:50 53.06411 -53.59929 34431 ft 506 kts 66°
2026-05-05 11:50 53.09394 -53.49390 34416 ft 506 kts 67°
2026-05-05 11:51 53.12382 -53.38786 34425 ft 505 kts 67°
2026-05-05 11:51 53.15359 -53.28172 34440 ft 505 kts 67°
2026-05-05 11:52 53.18326 -53.17548 34441 ft 505 kts 68°
2026-05-05 11:52 53.21273 -53.06945 34443 ft 504 kts 68°
2026-05-05 11:53 53.24196 -52.96377 34449 ft 503 kts 68°
2026-05-05 11:53 53.27126 -52.85737 34452 ft 503 kts 68°
2026-05-05 11:54 53.30048 -52.75082 34454 ft 503 kts 68°
2026-05-05 11:54 53.32954 -52.64434 34466 ft 503 kts 68°
2026-05-05 11:55 53.35847 -52.53783 34466 ft 502 kts 68°
2026-05-05 11:55 53.38714 -52.43175 34476 ft 502 kts 68°
2026-05-05 11:56 53.41588 -52.32498 34479 ft 502 kts 68°
2026-05-05 11:56 53.44450 -52.21813 34484 ft 502 kts 69°
2026-05-05 11:57 53.47302 -52.11119 34487 ft 502 kts 69°
2026-05-05 11:57 53.50140 -52.00424 34502 ft 501 kts 69°
2026-05-05 11:58 53.52950 -51.89782 34503 ft 501 kts 69°
2026-05-05 11:58 53.55771 -51.79055 34511 ft 501 kts 69°
2026-05-05 11:59 53.58580 -51.68323 34515 ft 500 kts 70°
2026-05-05 11:59 53.61376 -51.57585 34525 ft 500 kts 70°
2026-05-05 12:00 53.64158 -51.46844 34530 ft 500 kts 70°
2026-05-05 12:00 53.66912 -51.36167 34537 ft 500 kts 70°
2026-05-05 12:01 53.69674 -51.25409 34539 ft 499 kts 70°
2026-05-05 12:01 53.72425 -51.14646 34534 ft 499 kts 70°
2026-05-05 12:02 53.75164 -51.03867 34549 ft 499 kts 70°
2026-05-05 12:02 53.77897 -50.93069 34561 ft 499 kts 70°
2026-05-05 12:03 53.80618 -50.82262 34569 ft 499 kts 70°
2026-05-05 12:03 53.83313 -50.71510 34567 ft 498 kts 71°
2026-05-05 12:04 53.86009 -50.60698 34579 ft 497 kts 71°
2026-05-05 12:04 53.88676 -50.49945 34590 ft 497 kts 71°
2026-05-05 12:05 53.91343 -50.39139 34599 ft 497 kts 71°
2026-05-05 12:05 53.94004 -50.28312 34596 ft 497 kts 71°
2026-05-05 12:06 53.96650 -50.17491 34604 ft 495 kts 71°
2026-05-05 12:06 53.98831 -50.08529 34608 ft 493 kts 72°
2026-05-05 12:07 54.01471 -49.97752 34615 ft 493 kts 71°
2026-05-05 12:07 54.03825 -49.86825 34622 ft 491 kts 75°
2026-05-05 12:08 54.06192 -49.75917 34634 ft 492 kts 72°
2026-05-05 12:08 54.08832 -49.65156 34633 ft 490 kts 71°
2026-05-05 12:09 54.11479 -49.54459 34640 ft 489 kts 71°
2026-05-05 12:09 54.14106 -49.43824 34651 ft 489 kts 71°
2026-05-05 12:10 54.16749 -49.33123 34649 ft 489 kts 71°
2026-05-05 12:10 54.19389 -49.22404 34651 ft 489 kts 72°
2026-05-05 12:11 54.22010 -49.11708 34656 ft 487 kts 72°
2026-05-05 12:11 54.24597 -49.01096 34682 ft 486 kts 72°
2026-05-05 12:12 54.27188 -48.90414 34679 ft 486 kts 72°
2026-05-05 12:12 54.29772 -48.79716 34685 ft 486 kts 72°
2026-05-05 12:13 54.32346 -48.69007 34683 ft 486 kts 72°
2026-05-05 12:13 54.34912 -48.58278 34696 ft 486 kts 72°
2026-05-05 12:14 54.37452 -48.47602 34705 ft 486 kts 72°
2026-05-05 12:14 54.39999 -48.36849 34705 ft 486 kts 72°
2026-05-05 12:15 54.42533 -48.26094 34706 ft 486 kts 72°
2026-05-05 12:15 54.45056 -48.15338 34708 ft 484 kts 73°
2026-05-05 12:16 54.47559 -48.04604 34716 ft 483 kts 73°
2026-05-05 12:16 54.50045 -47.93885 34732 ft 482 kts 73°
2026-05-05 12:17 54.52526 -47.83141 34731 ft 483 kts 73°
2026-05-05 12:17 54.54996 -47.72387 34746 ft 482 kts 73°
2026-05-05 12:18 54.57438 -47.61715 34734 ft 480 kts 73°
2026-05-05 12:18 54.59870 -47.51015 34740 ft 478 kts 74°
2026-05-05 12:19 54.62289 -47.40309 34755 ft 479 kts 74°
2026-05-05 12:19 54.64708 -47.29565 34767 ft 479 kts 74°
2026-05-05 12:20 54.67115 -47.18820 34757 ft 479 kts 74°
2026-05-05 12:20 54.69508 -47.08091 34775 ft 477 kts 74°
2026-05-05 12:21 54.71876 -46.97402 34796 ft 476 kts 75°
2026-05-05 12:21 54.74230 -46.86715 34800 ft 475 kts 75°
2026-05-05 12:22 54.76565 -46.76071 34806 ft 475 kts 75°
2026-05-05 12:22 54.78903 -46.65362 34776 ft 475 kts 75°
2026-05-05 12:23 54.81232 -46.54644 34811 ft 473 kts 75°
2026-05-05 12:23 54.83541 -46.43948 34821 ft 472 kts 75°
2026-05-05 12:24 54.85821 -46.33333 34831 ft 472 kts 75°
2026-05-05 12:24 54.88107 -46.22638 34832 ft 472 kts 75°
2026-05-05 12:25 54.90386 -46.11923 34801 ft 473 kts 75°
2026-05-05 12:25 54.92651 -46.01223 34839 ft 470 kts 76°
2026-05-05 12:26 54.94897 -45.90551 34862 ft 470 kts 76°
2026-05-05 12:26 54.97133 -45.79855 34860 ft 470 kts 76°
2026-05-05 12:27 54.99360 -45.69158 34866 ft 469 kts 76°
2026-05-05 12:27 55.01577 -45.58460 34825 ft 469 kts 76°
2026-05-05 12:28 55.03762 -45.47869 34871 ft 464 kts 76°
2026-05-05 12:28 55.05932 -45.37261 34883 ft 463 kts 77°
2026-05-05 12:29 55.08087 -45.26665 34891 ft 463 kts 77°
2026-05-05 12:29 55.10233 -45.16071 34893 ft 463 kts 77°
2026-05-05 12:30 55.12371 -45.05469 34857 ft 463 kts 77°
2026-05-05 12:30 55.14491 -44.94928 34904 ft 456 kts 78°
2026-05-05 12:31 55.16557 -44.84551 34896 ft 453 kts 78°
2026-05-05 12:31 55.18619 -44.74104 34917 ft 455 kts 78°
2026-05-05 12:32 55.20690 -44.63607 34915 ft 456 kts 78°
2026-05-05 12:32 55.22754 -44.53106 34921 ft 455 kts 78°
2026-05-05 12:33 55.24803 -44.42631 34912 ft 452 kts 79°
2026-05-05 12:33 55.26822 -44.32230 34933 ft 449 kts 79°
2026-05-05 12:34 55.28808 -44.21906 34939 ft 449 kts 79°
2026-05-05 12:34 55.30801 -44.11515 34946 ft 449 kts 79°
2026-05-05 12:35 55.32786 -44.01124 34949 ft 449 kts 79°
2026-05-05 12:35 55.34762 -43.90732 34933 ft 447 kts 79°
2026-05-05 12:36 55.36720 -43.80375 34951 ft 445 kts 79°
2026-05-05 12:36 55.38656 -43.70048 34962 ft 445 kts 79°
2026-05-05 12:37 55.40575 -43.59766 34964 ft 444 kts 80°
2026-05-05 12:37 55.42501 -43.49406 34970 ft 445 kts 80°
2026-05-05 12:38 55.44417 -43.39039 34970 ft 445 kts 80°
2026-05-05 12:38 55.46324 -43.28671 34972 ft 445 kts 80°
2026-05-05 12:39 55.48224 -43.18288 34981 ft 445 kts 80°
2026-05-05 12:39 55.50101 -43.07969 34978 ft 445 kts 80°
2026-05-05 12:40 55.51981 -42.97570 34980 ft 445 kts 80°
2026-05-05 12:40 55.53854 -42.87155 34980 ft 445 kts 80°
2026-05-05 12:41 55.55715 -42.76747 34976 ft 443 kts 80°
2026-05-05 12:41 55.57554 -42.66392 34984 ft 441 kts 80°
2026-05-05 12:42 55.59381 -42.56023 34992 ft 441 kts 80°
2026-05-05 12:42 55.61189 -42.45726 34989 ft 441 kts 80°
2026-05-05 12:43 55.63002 -42.35353 34997 ft 441 kts 80°
2026-05-05 12:43 55.64807 -42.24961 34970 ft 440 kts 80°
2026-05-05 12:44 55.66601 -42.14579 34993 ft 440 kts 80°
2026-05-05 12:44 55.68375 -42.04258 34989 ft 440 kts 80°
2026-05-05 12:45 55.70152 -41.93850 35009 ft 441 kts 80°
2026-05-05 12:45 55.71921 -41.83437 35011 ft 441 kts 80°
2026-05-05 12:46 55.73684 -41.72998 35005 ft 441 kts 80°
2026-05-05 12:46 55.75434 -41.62555 34995 ft 443 kts 79°
2026-05-05 12:47 55.77188 -41.52054 35009 ft 444 kts 79°
2026-05-05 12:47 55.78926 -41.41603 35015 ft 444 kts 80°
2026-05-05 12:48 55.80661 -41.31078 35018 ft 444 kts 80°
2026-05-05 12:48 55.82388 -41.20539 35021 ft 444 kts 80°
2026-05-05 12:49 55.84103 -41.09999 35009 ft 443 kts 79°
2026-05-05 12:49 55.85817 -40.99403 35034 ft 446 kts 79°
2026-05-05 12:50 55.87527 -40.88796 35039 ft 446 kts 79°
2026-05-05 12:50 55.89229 -40.78162 35042 ft 446 kts 79°
2026-05-05 12:51 55.90908 -40.67597 35044 ft 445 kts 80°
2026-05-05 12:51 55.92587 -40.56956 35011 ft 446 kts 79°
2026-05-05 12:52 55.94260 -40.46273 35048 ft 449 kts 79°
2026-05-05 12:52 55.95940 -40.35534 35062 ft 450 kts 79°
2026-05-05 12:53 55.97344 -40.26507 35065 ft 450 kts 79°
2026-05-05 12:53 55.98993 -40.15808 35068 ft 450 kts 79°
2026-05-05 12:54 56.01586 -39.99673 35042 ft 453 kts 74°
2026-05-05 12:55 56.03728 -39.89079 35089 ft 453 kts 77°
2026-05-05 12:55 56.05739 -39.78368 35086 ft 455 kts 73°
2026-05-05 12:56 56.08190 -39.67881 35095 ft 457 kts 71°
2026-05-05 12:56 56.10738 -39.57521 35105 ft 457 kts 71°
2026-05-05 12:57 56.13304 -39.47075 35084 ft 457 kts 71°
2026-05-05 12:57 56.15881 -39.36617 35114 ft 459 kts 70°
2026-05-05 12:58 56.18468 -39.26114 35125 ft 459 kts 70°
2026-05-05 12:58 56.21029 -39.15669 35124 ft 459 kts 70°
2026-05-05 12:59 56.23599 -39.05139 35137 ft 459 kts 70°
2026-05-05 12:59 56.26156 -38.94611 35115 ft 459 kts 70°
2026-05-05 13:00 56.29994 -38.78713 35152 ft 463 kts 70°
2026-05-05 13:01 56.35079 -38.57479 35167 ft 463 kts 70°
2026-05-05 13:01 56.37615 -38.46811 35167 ft 463 kts 70°
2026-05-05 13:02 56.40144 -38.36110 35169 ft 464 kts 69°
2026-05-05 13:02 56.42665 -38.25400 35175 ft 466 kts 69°
2026-05-05 13:03 56.45193 -38.14612 35190 ft 466 kts 69°
2026-05-05 13:03 56.47715 -38.03791 35186 ft 466 kts 69°
2026-05-05 13:04 56.50220 -37.92985 35192 ft 466 kts 70°
2026-05-05 13:04 56.52704 -37.82210 35196 ft 466 kts 70°
2026-05-05 13:05 56.55192 -37.71366 35203 ft 466 kts 70°
2026-05-05 13:05 56.57669 -37.60517 35209 ft 466 kts 70°
2026-05-05 13:06 56.60142 -37.49627 35208 ft 466 kts 70°
2026-05-05 13:06 56.62603 -37.38736 35199 ft 466 kts 70°
2026-05-05 13:07 56.65056 -37.27820 35207 ft 467 kts 70°
2026-05-05 13:07 56.67492 -37.16936 35220 ft 468 kts 69°
2026-05-05 13:08 56.69936 -37.05956 35217 ft 468 kts 70°
2026-05-05 13:08 56.72367 -36.94970 35229 ft 468 kts 70°
2026-05-05 13:09 56.74787 -36.83976 35219 ft 468 kts 70°
2026-05-05 13:09 56.77200 -36.72957 35238 ft 469 kts 70°
2026-05-05 13:10 56.79600 -36.61951 35237 ft 469 kts 70°
2026-05-05 13:10 56.82002 -36.50866 35241 ft 469 kts 69°
2026-05-05 13:11 56.84397 -36.39756 35237 ft 469 kts 70°
2026-05-05 13:11 56.86778 -36.28638 35245 ft 469 kts 69°
2026-05-05 13:12 56.89136 -36.17578 35250 ft 470 kts 69°
2026-05-05 13:12 56.91509 -36.06404 35262 ft 471 kts 69°
2026-05-05 13:13 56.93872 -35.95204 35257 ft 472 kts 69°
2026-05-05 13:13 56.96232 -35.83956 35257 ft 472 kts 69°
2026-05-05 13:14 56.98578 -35.72708 35263 ft 472 kts 68°
2026-05-05 13:14 57.00914 -35.61446 35260 ft 472 kts 68°
2026-05-05 13:15 57.03225 -35.50251 35267 ft 471 kts 69°
2026-05-05 13:15 57.05535 -35.38989 35269 ft 471 kts 68°
2026-05-05 13:16 57.07837 -35.27699 35274 ft 472 kts 69°
2026-05-05 13:16 57.10132 -35.16384 35273 ft 472 kts 68°
2026-05-05 13:17 57.12420 -35.05048 35273 ft 473 kts 68°
2026-05-05 13:17 57.14701 -34.93679 35276 ft 473 kts 69°
2026-05-05 13:18 57.16967 -34.82317 35274 ft 473 kts 69°
2026-05-05 13:18 57.19212 -34.70992 35277 ft 473 kts 69°
2026-05-05 13:19 57.21460 -34.59583 35277 ft 473 kts 68°
2026-05-05 13:19 57.23704 -34.48134 35278 ft 474 kts 69°
2026-05-05 13:20 57.25935 -34.36688 35276 ft 473 kts 69°
2026-05-05 13:20 57.28153 -34.25231 35279 ft 473 kts 69°
2026-05-05 13:21 57.30363 -34.13756 35279 ft 473 kts 69°
2026-05-05 13:21 57.32559 -34.02272 35286 ft 474 kts 68°
2026-05-05 13:22 57.34750 -33.90769 35281 ft 474 kts 69°
2026-05-05 13:22 57.36918 -33.79313 35286 ft 474 kts 69°
2026-05-05 13:23 57.39087 -33.67773 35280 ft 474 kts 69°
2026-05-05 13:23 57.41246 -33.56218 35279 ft 474 kts 69°
2026-05-05 13:24 57.43395 -33.44644 35287 ft 474 kts 68°
2026-05-05 13:24 57.45535 -33.33061 35282 ft 474 kts 68°
2026-05-05 13:25 57.47650 -33.21534 35284 ft 474 kts 69°
2026-05-05 13:25 57.49769 -33.09911 35284 ft 474 kts 69°
2026-05-05 13:26 57.51875 -32.98290 35307 ft 474 kts 68°
2026-05-05 13:26 57.53974 -32.86637 35287 ft 474 kts 68°
2026-05-05 13:27 57.56048 -32.75055 35285 ft 474 kts 68°
2026-05-05 13:27 57.58120 -32.63399 35283 ft 474 kts 68°
2026-05-05 13:28 57.60184 -32.51723 35281 ft 474 kts 68°
2026-05-05 13:28 57.62235 -32.40039 35281 ft 474 kts 69°
2026-05-05 13:29 57.64277 -32.28337 35282 ft 474 kts 69°
2026-05-05 13:29 57.66308 -32.16620 35284 ft 474 kts 69°
2026-05-05 13:30 57.68327 -32.04896 35284 ft 474 kts 69°
2026-05-05 13:30 57.70337 -31.93154 35284 ft 474 kts 69°
2026-05-05 13:31 57.72335 -31.81398 35282 ft 474 kts 69°
2026-05-05 13:31 57.74310 -31.69709 35281 ft 473 kts 69°
2026-05-05 13:32 57.76284 -31.57941 35278 ft 474 kts 69°
2026-05-05 13:32 57.78248 -31.46161 35281 ft 474 kts 69°
2026-05-05 13:33 57.80202 -31.34363 35281 ft 474 kts 69°
2026-05-05 13:33 57.82142 -31.22562 35300 ft 474 kts 69°
2026-05-05 13:34 57.84074 -31.10740 35286 ft 473 kts 69°
2026-05-05 13:34 57.85983 -30.98981 35277 ft 473 kts 69°
2026-05-05 13:35 57.87891 -30.87144 35278 ft 473 kts 69°
2026-05-05 13:35 57.89790 -30.75283 35275 ft 473 kts 69°
2026-05-05 13:36 57.91678 -30.63406 35289 ft 474 kts 69°
2026-05-05 13:36 57.93555 -30.51529 35281 ft 474 kts 69°
2026-05-05 13:37 57.95410 -30.39706 35272 ft 474 kts 69°
2026-05-05 13:37 57.97266 -30.27791 35273 ft 474 kts 69°
2026-05-05 13:38 57.99112 -30.15861 35273 ft 474 kts 69°
2026-05-05 13:38 58.00842 -30.03843 35261 ft 479 kts 76°
2026-05-05 13:39 58.01270 -29.91238 35278 ft 486 kts 87°
2026-05-05 13:39 58.01125 -29.78467 35273 ft 485 kts 84°
2026-05-05 13:40 58.01454 -29.65780 35272 ft 483 kts 81°
2026-05-05 13:40 58.01901 -29.53196 35269 ft 483 kts 82°
2026-05-05 13:41 58.02335 -29.40531 35304 ft 483 kts 81°
2026-05-05 13:41 58.02779 -29.27849 35276 ft 485 kts 81°
2026-05-05 13:42 58.03219 -29.15137 35275 ft 485 kts 81°
2026-05-05 13:42 58.03646 -29.02396 35269 ft 486 kts 81°
2026-05-05 13:43 58.04059 -28.89736 35271 ft 486 kts 81°
2026-05-05 13:43 58.04461 -28.77009 35274 ft 486 kts 82°
2026-05-05 13:44 58.04851 -28.64269 35276 ft 485 kts 81°
2026-05-05 13:44 58.05165 -28.53687 35272 ft 486 kts 82°
2026-05-05 13:45 58.05592 -28.38852 35270 ft 486 kts 82°
2026-05-05 13:45 58.05888 -28.28168 35270 ft 486 kts 82°
2026-05-05 13:46 58.06228 -28.15477 35284 ft 486 kts 82°
2026-05-05 13:46 58.06557 -28.02718 35290 ft 487 kts 82°
2026-05-05 13:47 58.06874 -27.89928 35281 ft 487 kts 82°
2026-05-05 13:47 58.07179 -27.77141 35276 ft 487 kts 82°
2026-05-05 13:48 58.07470 -27.64340 35276 ft 488 kts 82°
2026-05-05 13:48 58.07749 -27.51529 35280 ft 488 kts 82°
2026-05-05 13:49 58.08015 -27.38711 35317 ft 488 kts 82°
2026-05-05 13:49 58.08268 -27.25883 35282 ft 488 kts 82°
2026-05-05 13:50 58.08506 -27.13179 35281 ft 486 kts 82°
2026-05-05 13:50 58.08733 -27.00382 35276 ft 487 kts 82°
2026-05-05 13:51 58.08947 -26.87575 35279 ft 487 kts 82°
2026-05-05 13:51 58.09148 -26.74768 35284 ft 487 kts 83°
2026-05-05 13:52 58.09337 -26.61954 35285 ft 487 kts 82°
2026-05-05 13:52 58.09512 -26.49209 35280 ft 488 kts 83°
2026-05-05 13:53 58.09675 -26.36383 35277 ft 488 kts 83°
2026-05-05 13:53 58.09825 -26.23549 35279 ft 488 kts 83°
2026-05-05 13:54 58.09963 -26.10722 35276 ft 488 kts 83°
2026-05-05 13:54 58.10088 -25.97887 35277 ft 488 kts 83°
2026-05-05 13:55 58.10199 -25.85052 35286 ft 488 kts 83°
2026-05-05 13:55 58.10296 -25.72222 35282 ft 486 kts 83°
2026-05-05 13:56 58.10380 -25.59448 35280 ft 486 kts 83°
2026-05-05 13:56 58.10452 -25.46757 35277 ft 486 kts 83°
2026-05-05 13:57 58.10512 -25.33976 35289 ft 486 kts 83°
2026-05-05 13:57 58.10560 -25.21186 35282 ft 486 kts 83°
2026-05-05 13:58 58.10596 -25.08388 35278 ft 486 kts 84°
2026-05-05 13:58 58.10618 -24.95596 35280 ft 486 kts 84°
2026-05-05 13:59 58.10626 -24.76464 35275 ft 487 kts 84°
2026-05-05 14:00 58.10606 -24.57234 35287 ft 487 kts 84°
2026-05-05 14:00 58.10576 -24.44409 35283 ft 488 kts 84°
2026-05-05 14:01 58.10533 -24.31595 35277 ft 486 kts 84°
2026-05-05 14:01 58.10474 -24.18833 35281 ft 484 kts 84°
2026-05-05 14:02 58.10405 -24.06101 35278 ft 484 kts 85°
2026-05-05 14:02 58.10325 -23.93423 35288 ft 485 kts 85°
2026-05-05 14:03 58.10232 -23.80636 35283 ft 486 kts 85°
2026-05-05 14:03 58.10126 -23.67838 35285 ft 486 kts 85°
2026-05-05 14:04 58.10008 -23.55039 35280 ft 487 kts 85°
2026-05-05 14:04 58.09876 -23.42238 35286 ft 487 kts 85°
2026-05-05 14:05 58.09732 -23.29517 35297 ft 487 kts 86°
2026-05-05 14:05 58.09575 -23.16681 35288 ft 488 kts 86°
2026-05-05 14:06 58.09405 -23.03834 35287 ft 489 kts 86°
2026-05-05 14:06 58.09222 -22.91003 35290 ft 489 kts 86°
2026-05-05 14:07 58.09026 -22.78247 35287 ft 488 kts 86°
2026-05-05 14:07 58.08815 -22.65395 35318 ft 488 kts 87°
2026-05-05 14:08 58.08594 -22.52545 35293 ft 490 kts 87°
2026-05-05 14:08 58.08358 -22.39685 35291 ft 490 kts 88°
2026-05-05 14:09 58.08110 -22.26804 35286 ft 490 kts 88°
2026-05-05 14:09 58.07848 -22.13918 35285 ft 490 kts 88°
2026-05-05 14:10 58.07574 -22.01119 35287 ft 490 kts 88°
2026-05-05 14:10 58.07288 -21.88225 35294 ft 492 kts 88°
2026-05-05 14:11 58.06987 -21.75304 35289 ft 492 kts 88°
2026-05-05 14:11 58.06674 -21.62385 35288 ft 493 kts 89°
2026-05-05 14:12 58.06345 -21.49445 35292 ft 493 kts 89°
2026-05-05 14:12 58.06005 -21.36525 35289 ft 492 kts 89°
2026-05-05 14:13 58.05650 -21.23608 35295 ft 492 kts 89°
2026-05-05 14:13 58.05283 -21.10682 35287 ft 493 kts 89°
2026-05-05 14:14 58.04905 -20.97822 35285 ft 493 kts 90°
2026-05-05 14:14 58.04511 -20.84881 35282 ft 494 kts 90°
2026-05-05 14:15 58.04104 -20.71940 35284 ft 494 kts 90°
2026-05-05 14:15 58.03683 -20.58980 35289 ft 494 kts 90°
2026-05-05 14:16 58.03250 -20.46033 35283 ft 494 kts 90°
2026-05-05 14:16 58.02803 -20.33076 35278 ft 495 kts 90°
2026-05-05 14:17 58.02345 -20.20216 35277 ft 495 kts 90°
2026-05-05 14:17 58.01870 -20.07224 35281 ft 495 kts 91°
2026-05-05 14:18 58.01217 -19.94282 35274 ft 497 kts 97°
2026-05-05 14:18 57.99654 -19.81555 35276 ft 499 kts 101°
2026-05-05 14:19 57.98399 -19.68823 35271 ft 497 kts 95°
2026-05-05 14:19 57.97559 -19.55891 35271 ft 496 kts 94°
2026-05-05 14:20 57.96726 -19.42971 35274 ft 496 kts 94°
2026-05-05 14:20 57.95902 -19.30076 35265 ft 496 kts 94°
2026-05-05 14:21 57.95081 -19.17147 35269 ft 496 kts 94°
2026-05-05 14:21 57.94256 -19.04319 35261 ft 496 kts 94°
2026-05-05 14:22 57.93412 -18.91404 35264 ft 492 kts 94°
2026-05-05 14:22 57.92563 -18.78583 35257 ft 496 kts 94°
2026-05-05 14:23 57.91698 -18.65703 35259 ft 496 kts 95°
2026-05-05 14:23 57.90823 -18.52895 35263 ft 497 kts 95°
2026-05-05 14:24 57.89929 -18.40003 35256 ft 497 kts 95°
2026-05-05 14:24 57.89015 -18.27007 35255 ft 499 kts 95°
2026-05-05 14:25 57.88092 -18.14096 35251 ft 497 kts 95°
2026-05-05 14:25 57.87163 -18.01288 35247 ft 497 kts 95°
2026-05-05 14:26 57.86217 -17.88420 35253 ft 498 kts 96°
2026-05-05 14:26 57.85257 -17.75548 35247 ft 498 kts 96°
2026-05-05 14:27 57.84284 -17.62681 35242 ft 498 kts 96°
2026-05-05 14:27 57.83296 -17.49799 35238 ft 498 kts 96°
2026-05-05 14:28 57.82296 -17.36923 35232 ft 499 kts 97°
2026-05-05 14:28 57.81279 -17.24019 35244 ft 500 kts 97°
2026-05-05 14:29 57.80253 -17.11162 35235 ft 502 kts 97°
2026-05-05 14:29 57.79205 -16.98213 35229 ft 502 kts 97°
2026-05-05 14:30 57.78144 -16.85267 35225 ft 502 kts 97°
2026-05-05 14:30 57.77067 -16.72302 35222 ft 502 kts 97°
2026-05-05 14:31 57.75987 -16.59459 35225 ft 502 kts 97°
2026-05-05 14:31 57.74887 -16.46538 35223 ft 503 kts 98°
2026-05-05 14:32 57.73770 -16.33592 35221 ft 504 kts 98°
2026-05-05 14:32 57.72823 -16.22742 35216 ft 504 kts 98°
2026-05-05 14:33 57.71683 -16.09817 35216 ft 504 kts 98°
2026-05-05 14:33 57.70529 -15.96898 35219 ft 504 kts 98°
2026-05-05 14:34 57.69370 -15.84064 35214 ft 504 kts 99°
2026-05-05 14:34 57.68185 -15.71109 35214 ft 506 kts 99°
2026-05-05 14:35 57.66984 -15.58126 35212 ft 506 kts 99°
2026-05-05 14:35 57.65773 -15.45176 35210 ft 506 kts 99°
2026-05-05 14:36 57.64546 -15.32222 35212 ft 506 kts 99°
2026-05-05 14:36 57.63315 -15.19362 35212 ft 507 kts 99°
2026-05-05 14:37 57.62059 -15.06406 35212 ft 507 kts 99°
2026-05-05 14:37 57.60790 -14.93442 35210 ft 508 kts 100°
2026-05-05 14:38 57.59509 -14.80492 35200 ft 508 kts 100°
2026-05-05 14:38 57.58211 -14.67540 35205 ft 509 kts 101°
2026-05-05 14:39 57.56899 -14.54580 35219 ft 509 kts 101°
2026-05-05 14:39 57.55579 -14.41682 35213 ft 509 kts 101°
2026-05-05 14:40 57.54240 -14.28730 35209 ft 510 kts 101°
2026-05-05 14:40 57.52887 -14.15777 35212 ft 510 kts 101°
2026-05-05 14:41 57.51518 -14.02825 35212 ft 510 kts 101°
2026-05-05 14:41 57.50137 -13.89882 35218 ft 510 kts 102°
2026-05-05 14:42 57.48742 -13.76943 35209 ft 510 kts 102°
2026-05-05 14:42 57.47341 -13.64081 35207 ft 510 kts 102°
2026-05-05 14:43 57.45918 -13.51151 35200 ft 510 kts 102°
2026-05-05 14:43 57.44486 -13.38282 35210 ft 508 kts 102°
2026-05-05 14:44 57.43042 -13.25441 35219 ft 508 kts 102°
2026-05-05 14:44 57.41585 -13.12589 35209 ft 509 kts 102°
2026-05-05 14:45 57.40115 -12.99747 35211 ft 509 kts 102°
2026-05-05 14:45 57.38642 -12.87000 35212 ft 509 kts 103°
2026-05-05 14:46 57.37144 -12.74159 35204 ft 509 kts 103°
2026-05-05 14:46 57.35635 -12.61341 35206 ft 509 kts 103°
2026-05-05 14:47 57.34111 -12.48530 35209 ft 509 kts 103°
2026-05-05 14:47 57.32575 -12.35726 35207 ft 509 kts 103°
2026-05-05 14:48 57.31038 -12.23043 35199 ft 508 kts 103°
2026-05-05 14:48 57.29478 -12.10294 35205 ft 507 kts 103°
2026-05-05 14:49 57.27908 -11.97589 35211 ft 507 kts 103°
2026-05-05 14:49 57.26326 -11.84889 35205 ft 507 kts 103°
2026-05-05 14:50 57.24733 -11.72197 35201 ft 507 kts 104°
2026-05-05 14:50 57.23123 -11.59488 35201 ft 507 kts 104°
2026-05-05 14:51 57.21511 -11.46875 35198 ft 507 kts 104°
2026-05-05 14:51 57.19877 -11.34210 35201 ft 507 kts 104°
2026-05-05 14:52 57.18232 -11.21559 35201 ft 508 kts 104°
2026-05-05 14:52 57.16573 -11.08913 35197 ft 508 kts 104°
2026-05-05 14:53 57.14900 -10.96265 35195 ft 506 kts 104°
2026-05-05 14:53 57.13221 -10.83700 35196 ft 505 kts 104°
2026-05-05 14:54 57.11527 -10.71138 35192 ft 505 kts 105°
2026-05-05 14:54 57.09833 -10.58662 35195 ft 506 kts 105°
2026-05-05 14:55 57.08115 -10.46097 35194 ft 507 kts 105°
2026-05-05 14:55 57.06383 -10.33519 35191 ft 507 kts 105°
2026-05-05 14:56 57.04637 -10.20960 35186 ft 507 kts 105°
2026-05-05 14:56 57.02879 -10.08423 35188 ft 507 kts 105°
2026-05-05 14:57 57.00971 -9.95938 35187 ft 507 kts 110°
2026-05-05 14:57 56.98389 -9.83905 35177 ft 507 kts 113°
2026-05-05 14:58 56.96068 -9.71723 35181 ft 505 kts 108°
2026-05-05 14:58 56.94142 -9.59329 35183 ft 505 kts 107°
2026-05-05 14:59 56.92201 -9.47033 35181 ft 505 kts 108°
2026-05-05 14:59 56.90057 -9.34785 35177 ft 505 kts 109°
2026-05-05 15:00 56.88271 -9.24583 35180 ft 507 kts 109°
2026-05-05 15:00 56.85811 -9.10284 35177 ft 507 kts 109°
2026-05-05 15:01 56.83682 -8.98002 35174 ft 507 kts 109°
2026-05-05 15:01 56.81540 -8.85719 35170 ft 507 kts 109°
2026-05-05 15:02 56.79389 -8.73463 35158 ft 507 kts 109°
2026-05-05 15:02 56.77227 -8.61226 35161 ft 507 kts 109°
2026-05-05 15:03 56.75068 -8.49080 35163 ft 506 kts 109°
2026-05-05 15:03 56.72884 -8.36880 35158 ft 506 kts 109°
2026-05-05 15:04 56.70684 -8.24669 35156 ft 506 kts 109°
2026-05-05 15:04 56.68473 -8.12479 35157 ft 506 kts 109°
2026-05-05 15:05 56.65149 -7.94303 35153 ft 507 kts 109°
2026-05-05 15:06 56.62911 -7.82160 35141 ft 507 kts 110°
2026-05-05 15:06 56.60658 -7.70020 35143 ft 507 kts 110°
2026-05-05 15:07 56.58394 -7.57897 35132 ft 505 kts 110°
2026-05-05 15:07 56.56142 -7.45912 35137 ft 504 kts 110°
2026-05-05 15:08 56.53864 -7.33872 35132 ft 504 kts 110°
2026-05-05 15:08 56.51575 -7.21849 35129 ft 504 kts 110°
2026-05-05 15:09 56.49290 -7.09915 35127 ft 504 kts 110°
2026-05-05 15:09 56.46980 -6.97931 35132 ft 504 kts 110°
2026-05-05 15:10 56.44659 -6.85961 35137 ft 505 kts 110°
2026-05-05 15:10 56.42323 -6.73992 35123 ft 505 kts 110°
2026-05-05 15:11 56.39974 -6.62022 35124 ft 505 kts 111°
2026-05-05 15:11 56.37630 -6.50156 35095 ft 504 kts 111°
2026-05-05 15:12 56.35264 -6.38251 35084 ft 504 kts 111°
2026-05-05 15:12 56.32890 -6.26385 35087 ft 503 kts 111°
2026-05-05 15:13 56.30503 -6.14519 35085 ft 503 kts 111°
2026-05-05 15:13 56.28106 -6.02675 35083 ft 503 kts 111°
2026-05-05 15:14 56.25699 -5.90850 35079 ft 503 kts 111°
2026-05-05 15:14 56.23020 -5.79237 35073 ft 502 kts 117°
2026-05-05 15:14 56.21443 -5.73630 34893 ft 500 kts 119°
2026-05-05 15:15 56.19862 -5.68124 34676 ft 491 kts 118°
2026-05-05 15:15 56.18363 -5.62653 34490 ft 487 kts 117°
2026-05-05 15:15 56.16925 -5.57168 34277 ft 486 kts 116°
2026-05-05 15:15 56.15505 -5.51656 34098 ft 485 kts 116°
2026-05-05 15:16 56.14090 -5.46167 33851 ft 485 kts 116°
2026-05-05 15:16 56.12688 -5.40748 33644 ft 485 kts 116°
2026-05-05 15:16 56.11264 -5.35259 33422 ft 485 kts 116°
2026-05-05 15:16 56.09843 -5.29779 33212 ft 485 kts 116°
2026-05-05 15:17 56.08420 -5.24293 32981 ft 485 kts 116°
2026-05-05 15:17 56.06992 -5.18798 32761 ft 486 kts 116°
2026-05-05 15:17 56.05530 -5.13350 32540 ft 485 kts 121°
2026-05-05 15:17 56.03587 -5.08479 32232 ft 479 kts 137°
2026-05-05 15:18 56.00983 -5.04892 31953 ft 468 kts 156°
2026-05-05 15:18 55.97965 -5.02944 31719 ft 458 kts 174°
2026-05-05 15:18 55.94813 -5.02770 31513 ft 450 kts 192°
2026-05-05 15:18 55.91847 -5.04346 31316 ft 443 kts 210°
2026-05-05 15:19 55.89357 -5.07478 31112 ft 438 kts 228°
2026-05-05 15:19 55.87607 -5.11763 30906 ft 434 kts 246°
2026-05-05 15:19 55.86720 -5.16864 30680 ft 433 kts 263°
2026-05-05 15:19 55.86758 -5.22247 30000 ft 439 kts 280°
2026-05-05 15:20 55.87764 -5.27370 29132 ft 442 kts 298°
2026-05-05 15:20 55.89657 -5.31714 28295 ft 448 kts 316°
2026-05-05 15:20 55.92225 -5.34925 27524 ft 454 kts 328°
2026-05-05 15:20 55.95045 -5.37557 26815 ft 459 kts 330°
2026-05-05 15:21 55.97854 -5.40291 26065 ft 461 kts 327°
2026-05-05 15:21 55.99691 -5.42227 25570 ft 462 kts 326°
2026-05-05 15:21 56.02442 -5.45216 24842 ft 463 kts 326°
2026-05-05 15:21 56.05125 -5.48208 24107 ft 444 kts 323°
2026-05-05 15:22 56.07497 -5.51542 23352 ft 422 kts 316°
2026-05-05 15:22 56.09753 -5.54752 22541 ft 408 kts 324°
2026-05-05 15:22 56.12200 -5.57089 21643 ft 384 kts 336°
2026-05-05 15:22 56.14771 -5.58376 20732 ft 389 kts 349°
2026-05-05 15:23 56.17468 -5.58590 20125 ft 403 kts
2026-05-05 15:23 56.20258 -5.57720 19689 ft 402 kts 13°
2026-05-05 15:23 56.22823 -5.55910 18994 ft 402 kts 24°
2026-05-05 15:23 56.25148 -5.53152 18255 ft 401 kts 37°
2026-05-05 15:24 56.27086 -5.49574 17429 ft 400 kts 50°
2026-05-05 15:24 56.28542 -5.45330 16638 ft 398 kts 64°
2026-05-05 15:24 56.29167 -5.40496 15794 ft 397 kts 87°
2026-05-05 15:24 56.28821 -5.35611 15007 ft 394 kts 109°
2026-05-05 15:25 56.27453 -5.31419 14242 ft 386 kts 133°
2026-05-05 15:25 56.25304 -5.28690 13376 ft 377 kts 160°
2026-05-05 15:25 56.22832 -5.27420 12698 ft 364 kts 174°
2026-05-05 15:25 56.20351 -5.27057 11966 ft 352 kts 181°
2026-05-05 15:26 56.17934 -5.27126 11206 ft 343 kts 185°
2026-05-05 15:26 56.15572 -5.27312 10458 ft 338 kts 181°
2026-05-05 15:26 56.13296 -5.26584 9919 ft 320 kts 161°
2026-05-05 15:26 56.11503 -5.24667 9718 ft 285 kts 137°
2026-05-05 15:27 56.10140 -5.22270 9937 ft 273 kts 137°
2026-05-05 15:27 56.08716 -5.19957 10147 ft 281 kts 140°
2026-05-05 15:27 56.07235 -5.17640 10191 ft 283 kts 140°
2026-05-05 15:27 56.05740 -5.15331 9988 ft 284 kts 140°
2026-05-05 15:28 56.04263 -5.13063 9733 ft 282 kts 140°
2026-05-05 15:28 56.02769 -5.10783 9381 ft 281 kts 140°
2026-05-05 15:28 56.01302 -5.08545 9202 ft 273 kts 140°
2026-05-05 15:28 55.99835 -5.06314 8743 ft 280 kts 139°
2026-05-05 15:29 55.98441 -5.03870 8150 ft 282 kts 132°
2026-05-05 15:29 55.97150 -5.01200 7519 ft 285 kts 129°
2026-05-05 15:29 55.95891 -4.98450 6906 ft 287 kts 128°
2026-05-05 15:29 55.94629 -4.95687 6276 ft 287 kts 128°
2026-05-05 15:30 55.93397 -4.92979 6010 ft 273 kts 128°
2026-05-05 15:30 55.92228 -4.90447 5951 ft 253 kts 132°
2026-05-05 15:30 55.90877 -4.88616 5928 ft 249 kts 149°
2026-05-05 15:30 55.89306 -4.87255 5696 ft 249 kts 155°
2026-05-05 15:31 55.87719 -4.86085 5400 ft 245 kts 157°
2026-05-05 15:31 55.86148 -4.84982 5066 ft 242 kts 158°
2026-05-05 15:31 55.84578 -4.83911 4724 ft 241 kts 158°
2026-05-05 15:31 55.83013 -4.82858 4341 ft 240 kts 158°
2026-05-05 15:32 55.81451 -4.81823 3954 ft 240 kts 158°
2026-05-05 15:32 55.79881 -4.80803 3564 ft 240 kts 158°
2026-05-05 15:32 55.78315 -4.79784 3165 ft 239 kts 158°
2026-05-05 15:32 55.76831 -4.78643 2693 ft 226 kts 141°
2026-05-05 15:33 55.75791 -4.76711 2415 ft 208 kts 123°
2026-05-05 15:33 55.75043 -4.74692 2406 ft 180 kts 119°
2026-05-05 15:33 55.74502 -4.72807 2473 ft 171 kts 101°
2026-05-05 15:33 55.74584 -4.70692 2474 ft 173 kts 76°
2026-05-05 15:34 55.74959 -4.68665 2419 ft 173 kts 70°
2026-05-05 15:34 55.75392 -4.66672 2442 ft 171 kts 69°
2026-05-05 15:34 55.75908 -4.64757 2512 ft 175 kts 60°
2026-05-05 15:34 55.76633 -4.63033 2412 ft 175 kts 52°
2026-05-05 15:35 55.77448 -4.61444 2390 ft 174 kts 48°
2026-05-05 15:35 55.78290 -4.59878 2318 ft 176 kts 47°
2026-05-05 15:35 55.79137 -4.58306 2138 ft 175 kts 47°
2026-05-05 15:35 55.79974 -4.56753 1910 ft 173 kts 49°
2026-05-05 15:36 55.80775 -4.55270 1694 ft 157 kts 47°
2026-05-05 15:36 55.81498 -4.53922 1514 ft 152 kts 49°
2026-05-05 15:36 55.82224 -4.52567 1322 ft 149 kts 49°
2026-05-05 15:36 55.82910 -4.51283 1093 ft 143 kts 50°
2026-05-05 15:37 55.83613 -4.49978 886 ft 148 kts 50°
2026-05-05 15:37 55.84329 -4.48652 604 ft 149 kts 47°
2026-05-05 15:37 55.85036 -4.47336 460 ft 148 kts 49°
2026-05-05 15:37 55.85768 -4.45983 267 ft 155 kts 47°
2026-05-05 15:38 55.86478 -4.44697 44 ft 132 kts 49°
2026-05-05 15:38 55.86995 -4.43697 34 ft 84 kts 48°
2026-05-05 15:38 55.87321 -4.43088 34 ft 57 kts 46°
2026-05-05 15:38 55.87559 -4.42645 34 ft 41 kts 46°
2026-05-05 15:39 55.87697 -4.42385 34 ft 12 kts 48°
2026-05-05 15:39 55.87746 -4.42278 34 ft 10 kts 74°
2026-05-05 15:39 55.87715 -4.42175 34 ft 11 kts 145°
2026-05-05 15:39 55.87634 -4.42176 34 ft 14 kts 203°
2026-05-05 15:40 55.87552 -4.42291 34 ft 11 kts 224°
2026-05-05 15:40 55.87489 -4.42404 34 ft 15 kts 224°
2026-05-05 15:40 55.87404 -4.42551 34 ft 18 kts 225°
2026-05-05 15:40 55.87288 -4.42657 34 ft 19 kts 200°
2026-05-05 15:41 55.87166 -4.42743 34 ft 20 kts 200°
2026-05-05 15:41 55.87066 -4.42804 34 ft 13 kts 199°
2026-05-05 15:41 55.86979 -4.42867 34 ft 14 kts 204°
2026-05-05 15:41 55.86895 -4.42939 33 ft 11 kts 207°
2026-05-05 15:42 55.86849 -4.43047 31 ft 12 kts 250°
2026-05-05 15:42 55.86821 -4.43199 34 ft 14 kts 255°
2026-05-05 15:42 55.86795 -4.43375 34 ft 15 kts 255°
2026-05-05 15:42 55.86768 -4.43548 34 ft 13 kts 254°
2026-05-05 15:43 55.86747 -4.43676 34 ft 9 kts 252°
2026-05-05 15:43 55.86721 -4.43781 34 ft 9 kts 236°
2026-05-05 15:43 55.86679 -4.43869 34 ft 10 kts 227°
2026-05-05 15:43 55.86629 -4.43965 34 ft 10 kts 227°
2026-05-05 15:44 55.86585 -4.44032 34 ft 6 kts 201°
2026-05-05 15:44 55.86555 -4.44031 34 ft 5 kts 163°
2026-05-05 15:44 55.86519 -4.44004 33 ft 6 kts 154°
2026-05-05 15:44 55.86485 -4.43974 34 ft 5 kts 152°
2026-05-05 15:45 55.86474 -4.43955 32 ft 1 kts 131°
2026-05-05 15:45 55.86470 -4.43940 34 ft 0 kts 116°
2026-05-05 15:45 55.86467 -4.43928 34 ft 1 kts 104°
2026-05-05 15:45 55.86469 -4.43893 34 ft 4 kts 73°
2026-05-05 15:46 55.86493 -4.43851 34 ft 3 kts 25°
2026-05-05 15:46 55.86503 -4.43843 34 ft 1 kts 27°
2026-05-05 15:46 55.86506 -4.43839 34 ft 0 kts 34°
2026-05-05 15:46 55.86510 -4.43833 34 ft 0 kts 42°